Simultaneous Nadir Overpasses (SNOs) Predictions

Prediction of SNOs between GOES-16 and TERRA Satellite Orbit:

Table of predicted SNOs for the next 14.0 days since TLE Epoch: 5/28/2022
Index Date Time (GOES-16) GOES-16 Lat,Lon TERRA Lat,Lon Distance(km) Time Diff (sec)
1 05/30/2022 03:06:46 -0.04, -75.19 0.71, -71.61 406.05 80
2 05/30/2022 15:25:20 0.04, -75.20 0.37, -76.77 178.71 80
3 06/01/2022 15:15:42 0.03, -75.20 -0.27, -73.80 159.31 80
4 06/02/2022 03:37:05 -0.03, -75.19 -0.81, -79.00 432.05 80
5 06/03/2022 15:03:24 0.03, -75.21 -0.92, -70.84 497.85 80
6 06/04/2022 03:24:46 -0.03, -75.21 -0.21, -76.02 93.34 80
7 06/06/2022 03:09:48 -0.02, -75.22 0.45, -73.06 246.13 80
8 06/06/2022 15:31:01 0.02, -75.24 0.68, -78.21 338.18 80
9 06/08/2022 15:21:23 0.02, -75.26 -0.00, -75.25 2.93 80
10 06/10/2022 15:09:04 0.02, -75.29 -0.64, -72.28 343.21 80
11 06/11/2022 03:30:26 -0.01, -75.29 -0.48, -77.46 247.24 80
